Location: Jaworzno
(50.2116°N, 19.2687°E)
Time: 22:54:14
(UTC+02:00)

ISS - Visible Passes

Search period start: 25 September 2018 00:00
Search period end: 05 October 2018 00:00
Orbit: 403 x 408 km, 51.6° (Epoch: 26 September)

Date Brightness Start Highest point End Pass type
(mag) Time Alt. Az. Time Alt. Az. Time Alt. Az.
25 Sep -2.8 19:28:20 10° SSW 19:31:16 30° SSE 19:33:25 15° E visible
25 Sep -2.1 21:04:16 10° WSW 21:06:06 30° W 21:06:06 30° W visible
26 Sep -3.9 20:12:24 10° WSW 20:15:41 76° SSE 20:16:23 51° E visible
26 Sep -0.4 21:49:00 10° W 21:49:04 10° W 21:49:04 10° W visible
27 Sep -3.6 19:20:36 10° SW 19:23:50 53° SSE 19:26:35 13° E visible
27 Sep -2.4 20:57:02 10° W 20:59:16 38° WNW 20:59:16 38° WNW visible
28 Sep -3.8 20:05:04 10° W 20:08:22 78° NNW 20:09:23 41° ENE visible
28 Sep -0.5 21:41:43 10° WNW 21:42:03 12° WNW 21:42:03 12° WNW visible
29 Sep -3.8 19:13:07 10° WSW 19:16:26 85° SSE 19:19:26 12° ENE visible
29 Sep -2.5 20:49:45 10° W 20:52:07 41° WNW 20:52:07 41° WNW visible
30 Sep -3.6 19:57:46 10° W 20:01:03 66° N 20:02:08 38° ENE visible
30 Sep -0.5 21:34:21 10° WNW 21:34:48 13° WNW 21:34:48 13° WNW visible
01 Oct -3.7 19:05:45 10° W 19:09:03 73° N 19:12:07 12° ENE visible
01 Oct -2.7 20:42:23 10° WNW 20:44:47 44° WNW 20:44:47 44° WNW visible
02 Oct -3.7 19:50:24 10° W 19:53:41 68° N 19:54:46 38° ENE visible
02 Oct -0.6 21:26:58 10° WNW 21:27:26 13° W 21:27:26 13° W visible
03 Oct -3.6 18:58:22 10° W 19:01:40 66° N 19:04:44 11° E visible
03 Oct -2.8 20:34:57 10° WNW 20:37:24 46° W 20:37:24 46° W visible
04 Oct -3.9 19:42:57 10° WNW 19:46:15 83° NNE 19:47:23 38° E visible
04 Oct -0.6 21:19:36 10° W 21:20:03 13° W 21:20:03 13° W visible
